SCP
0 0 0 0 0 0 0 0 0 0 0 0 0 0 0 0 0 0 0 0 0 0 0 0 0 0 0 0 0 0 0 0 0 0 0 0 0 0 0 0 0 0 0
0 0 0 0 0 0 0 0 0 0 0 0 0 0 0 0 0 0 0 0 0 0 0 0 0 0 0 0 0 0 0 0 0 0 0 0 0 0 0 0 0 0 0
0 0 0 0 0 0 0 0 0 0 0 0 0 0 0 0 0 0 0 0 0 0 0 0 0 0 0 0 0 0 0 0 0 0 0 0 0 0 0 0 0 0 0
0 0 0 0 0 0 0 0 0 0 0 0 0 0 0 0 0 0 0 0 0 0 0 0 0 0 0 0 0 0 0 0 0 0 0 0 0 0 0 0 0 0 0
0 0 0 0 0 0 0 0 0 0 0 0 0 0 0 0 0 0 0 0 0 0 0 0 0 0 0 0 0 0 0 0 0 0 0 0 0 0 0 0 0 0 0
0 0 0 0 0 0 0 0 0 0 0 0 0 0 0 0 0 0 0 0 0 0 0 0 0 0 0 0 0 0 0 0 0 0 0 0 0 0 0 0 0 0 0
0 0 0 0 0 0 0 0 0 0 0 0 0 0 0 0 0 0 0 0 0 0 0 0 0 0 0 0 0 0 0 0 0 0 0 0 0 0 0 0 0 0 0
0 0 0 0 0 0 0 0 0 0 0 0 0 0 0 0 0 0 0 0 0 0 0 0 0 0 0 0 0 0 0 0 0 0 0 0 0 0 0 0 0 0 0
0 0 0 0 0 0 0 0 0 0 0 0 0 0 0 0 0 0 0 0 0 0 0 0 0 0 0 0 0 0 0 0 0 0 0 0 0 0 0 0 0 0 0
0 0 0 0 0 0 0 0 0 0 0 0 0 0 0 0 0 0 0 0 0 0 0 0 0 0 0 0 0 0 0 0 0 0 0 0 0 0 0 0 0 0 0
0 0 0 0 0 0 0 0 0 0 0 0 0 0 0 0 0 0 0 0 0 0 0 0 0 0 0 0 0 0 0 0 0 0 0 0 0 0 0 0 0 0 0
0 0 0 0 0 0 0 0 0 0 0 0 0 0 0 0 0 0 0 0 0 0 0 0 0 0 0 0 0 0 0 0 0 0 0 0 0 0 0 0 0 0 0
0 0 0 0 0 0 0 0 0 0 0 0 0 0 0 0 0 0 0 0 0 0 0 0 0 0 0 0 0 0 0 0 0 0 0 0 0 0 0 0 0 0 0
0 0 0 0 0 0 0 0 0 0 0 0 0 0 0 0 0 0 0 0 0 0 0 0 0 0 0 0 0 0 0 0 0 0 0 0 0 0 0 0 0 0 0
0 0 0 0 0 0 0 0 0 0 0 0 0 0 0 0 0 0 0 0 0 0 0 0 0 0 0 0 0 0 0 0 0 0 0 0 0 0 0 0 0 0 0
0 0 0 0 0 0 0 0 0 0 0 0 0 0 0 0 0 0 0 0 0 0 0 0 0 0 0 0 0 0 0 0 0 0 0 0 0 0 0 0 0 0 0
0 0 0 0 0 0 0 0 0 0 0 0 0 0 0 0 0 0 0 0 0 0 0 0 0 0 0 0 0 0 0 0 0 0 0 0 0 0 0 0 0 0 0
0 0 0 0 0 0 0 0 0 0 0 0 0 0 0 0 0 0 0 0 0 0 0 0 0 0 0 0 0 0 0 0 0 0 0 0 0 0 0 0 0 0 0
0 0 0 0 0 0 0 0 0 0 0 0 0 0 0 0 0 0 0 0 0 0 0 0 0 0 0 0 0 0 0 0 0 0 0 0 0 0 0 0 0 0 0
0 0 0 0 0 0 0 0 0 0 0 0 0 0 0 0 0 0 0 0 0 0 0 0 0 0 0 0 0 0 0 0 0 0 0 0 0 0 0 0 0 0 0
0 0 0 0 0 0 0 0 0 0 0 0 0 0 0 0 0 0 0 0 0 0 0 0 0 0 0 0 0 0 0 0 0 0 0 0 0 0 0 0 0 0 0
0 0 0 0 0 0 0 0 0 0 0 0 0 0 0 0 0 0 0 0 0 0 0 0 0 0 0 0 0 0 0 0 0 0 0 0 0 0 0 0 0 0 0
0 0 0 0 0 0 0 0 0 0 0 0 0 0 0 0 0 0 0 0 0 0 0 0 0 0 0 0 0 0 0 0 0 0 0 0 0 0 0 0 0 0 0
0 0 0 0 0 0 0 0 0 0 0 0 0 0 0 0 0 0 0 0 0 0 0 0 0 0 0 0 0 0 0 0 0 0 0 0 0 0 0 0 0 0 0
0 0 0 0 0 0 0 0 0 0 0 0 0 0 0 0 0 0 0 0 0 0 0 0 0 0 0 0 0 0 0 0 0 0 0 0 0 0 0 0 0 0 0
0 0 0 0 0 0 0 0 0 0 0 0 0 0 0 0 0 0 0 0 0 0 0 0 0 0 0 0 0 0 0 0 0 0 0 0 0 0 0 0 0 0 0
Wind_Speed
3 3 3 3 4 3 4 5 5 6 7 7 7 8 8 8 7 6 5 12 14 15 16 16 16 15 14 13 13 12 11 11 10 9 8 7 7 6 6 6 5 4 3
3 3 3 3 4 4 5 5 6 6 6 6 8 8 9 8 8 7 6 8 14 15 16 17 17 17 16 15 15 14 13 12 12 11 10 9 8 8 8 7 6 5 4
3 3 3 3 4 4 5 5 5 5 5 6 8 9 8 8 8 9 8 6 7 13 15 18 18 18 17 17 16 15 15 14 13 12 11 11 10 9 9 9 8 7 6
3 3 3 3 4 3 4 4 5 5 6 6 6 7 7 7 9 9 8 7 6 7 11 16 16 17 18 18 18 17 16 15 14 14 13 12 11 11 11 10 9 9 8
4 3 2 3 3 3 4 5 5 5 5 6 6 6 6 6 7 8 8 9 8 8 7 11 15 15 16 18 18 18 17 16 15 15 14 14 13 12 12 12 11 10 10
5 3 2 3 3 3 4 4 5 5 4 5 6 6 6 6 6 7 8 7 8 9 9 8 8 10 15 17 19 19 19 18 17 16 16 15 15 14 14 13 12 12 11
5 4 3 3 2 2 3 4 4 5 5 3 3 4 4 5 6 6 6 6 8 9 9 9 8 7 7 15 18 19 19 19 19 18 17 16 16 16 15 15 14 13 13
5 4 4 2 2 2 3 2 2 3 3 3 2 2 3 3 5 6 6 7 7 6 8 9 8 9 7 6 10 17 19 20 20 19 18 17 17 17 17 16 15 14 14
5 4 4 3 2 2 2 2 2 2 3 3 2 3 3 4 2 3 6 6 6 6 6 7 9 9 9 7 7 12 15 17 19 20 19 19 18 18 17 17 16 15 15
5 5 4 4 3 2 2 2 1 2 2 2 3 3 3 2 2 3 2 4 6 6 7 6 7 8 7 6 8 10 12 14 18 20 20 20 19 19 19 18 17 16 15
5 5 5 4 3 3 3 3 2 2 1 2 2 2 3 2 2 3 4 3 3 5 5 6 5 5 6 6 6 8 11 14 18 19 20 20 20 20 19 19 18 17 15
4 6 5 4 4 3 3 3 2 2 2 2 2 2 2 2 2 3 4 4 4 4 5 5 6 5 5 6 7 9 11 13 16 19 20 19 18 19 19 19 18 17 16
4 6 5 5 4 4 4 3 2 2 2 2 2 2 2 3 2 2 3 3 4 3 3 4 4 5 5 5 6 9 11 13 15 18 20 20 17 15 16 18 18 18 17
4 5 5 5 5 5 5 4 3 3 2 3 3 3 3 3 2 2 2 3 4 4 4 4 2 4 4 4 6 9 8 12 14 16 18 17 15 14 13 14 17 17 17
4 5 5 5 5 5 5 4 3 3 3 3 3 4 3 3 2 2 2 3 4 6 6 4 3 2 3 4 6 6 7 10 13 14 15 14 13 13 13 13 14 15 15
4 5 5 5 5 5 5 5 4 4 4 3 3 4 4 3 3 2 3 3 3 5 6 3 3 3 4 4 6 6 7 10 12 14 14 14 14 14 13 13 13 14 15
5 5 5 5 5 5 5 5 5 5 5 4 4 4 5 4 3 3 3 3 3 4 7 5 3 3 4 5 5 5 6 7 7 13 15 15 15 14 14 14 14 15 16
5 5 4 5 5 5 5 5 5 5 5 5 5 5 5 5 4 4 3 4 4 4 5 8 5 3 5 5 5 6 6 6 6 11 14 15 15 15 15 14 14 15 16
5 5 5 5 5 5 5 5 5 5 5 5 5 5 5 5 5 4 4 4 4 4 4 6 6 4 4 4 5 5 6 5 6 8 12 14 15 15 15 15 15 15 16
4 4 4 4 4 5 5 4 4 4 4 4 4 4 5 5 5 6 5 5 4 5 5 5 6 5 4 3 4 5 5 5 6 6 8 9 12 14 16 16 16 16 16
4 4 4 4 5 4 4 5 4 4 4 5 5 5 5 7 9 7 6 5 5 5 5 5 6 5 4 3 4 4 6 6 6 4 4 5 6 7 9 13 15 15 15
4 3 4 4 5 5 9 10 7 4 4 4 5 5 6 7 9 11 12 11 8 6 6 5 6 6 7 6 5 6 6 6 6 3 4 6 5 7 7 7 12 15 15
3 3 4 4 4 6 11 11 11 5 4 4 5 5 6 7 9 7 10 11 10 11 10 7 8 8 8 7 7 7 7 7 8 5 5 8 5 7 6 7 13 15 16
3 3 4 4 4 6 11 11 11 5 3 4 5 5 6 7 7 8 7 7 7 7 9 7 7 8 8 8 8 9 9 9 7 5 6 8 6 6 6 6 12 16 17
3 3 4 4 4 6 11 11 11 3 4 5 5 5 6 7 12 14 9 8 9 8 10 13 13 13 15 15 12 7 6 6 7 6 5 5 4 4 5 6 8 14 15
3 4 4 4 4 5 10 12 11 3 4 5 5 5 9 11 15 15 9 8 9 9 8 9 9 11 9 10 12 8 6 6 6 6 4 4 3 2 3 3 3 5 8
Wind_Direction
249 241 235 225 222 218 212 212 210 209 209 211 215 217 219 220 222 216 220 217 215 213 211 210 209 209 212 213 213 212 211 210 210 211 209 205 204 205 198 197 199 200 206
260 250 243 233 226 220 219 214 214 213 215 214 220 222 223 220 223 220 218 218 218 215 214 213 214 213 214 215 216 215 214 214 214 214 214 213 212 211 209 208 208 208 210
274 259 250 243 238 229 222 219 219 217 221 221 225 226 226 223 222 220 217 214 216 219 218 217 217 217 217 218 219 218 217 217 217 217 218 216 216 215 214 213 212 213 215
288 266 258 255 251 238 227 222 217 219 224 224 227 229 228 225 224 221 216 213 212 216 219 221 222 221 220 221 222 222 221 218 218 218 219 219 219 219 217 218 216 215 218
307 279 261 268 260 243 234 232 225 219 227 229 230 232 230 226 222 220 218 215 214 214 213 219 221 223 223 223 225 226 225 222 219 219 221 221 221 220 220 220 219 220 222
325 310 291 289 281 261 249 241 237 230 230 231 239 240 235 230 222 219 219 218 218 217 215 216 217 224 225 226 228 230 229 226 222 221 223 224 222 221 222 223 223 222 222
333 329 321 317 305 276 267 255 238 234 233 222 232 253 250 237 229 225 221 218 220 220 216 217 215 216 223 226 229 231 232 230 228 225 224 224 224 224 225 225 225 226 224
338 336 336 324 320 304 295 288 275 252 237 208 208 230 255 258 240 230 222 220 223 218 221 221 219 218 218 218 224 226 232 233 232 230 228 226 227 227 227 226 227 227 226
341 341 335 327 326 318 302 298 291 273 265 240 205 207 215 232 256 243 227 225 225 224 226 223 222 224 221 218 220 223 228 233 234 234 233 230 230 230 230 228 227 227 226
342 344 341 338 335 327 321 304 302 276 265 269 258 238 243 239 233 259 252 228 226 227 230 230 225 224 220 220 223 222 223 229 236 238 237 235 233 232 232 230 230 229 226
346 346 344 341 339 331 321 314 314 301 273 264 268 272 258 263 250 252 259 246 240 227 227 229 226 226 224 221 222 227 223 227 235 240 242 240 238 237 234 233 231 230 226
338 345 345 345 342 338 328 318 311 302 293 287 280 277 272 250 241 249 256 253 249 239 233 227 220 224 227 225 230 232 227 230 237 241 243 242 242 241 239 236 232 229 226
339 343 346 344 345 344 341 337 336 324 312 301 285 277 276 272 274 259 260 267 260 257 240 234 227 226 226 229 235 235 234 234 238 241 244 245 244 242 242 238 231 228 225
334 342 346 346 347 346 346 340 339 329 328 308 302 289 276 277 275 271 266 275 276 260 240 241 229 226 238 240 246 234 238 238 240 243 246 249 247 241 238 237 232 229 226
338 346 344 347 351 352 348 339 335 334 331 321 308 301 288 280 270 270 268 259 262 267 260 246 241 246 257 254 257 246 246 244 244 246 246 247 247 242 233 230 231 226 223
339 342 348 348 351 355 357 354 343 342 337 329 323 324 312 304 295 278 266 261 251 258 267 262 253 276 262 263 264 256 251 254 244 245 246 245 243 239 233 228 227 225 222
342 344 343 348 351 355 357 356 352 349 346 343 341 332 321 316 310 302 288 276 265 256 264 275 272 280 264 265 271 261 257 248 246 246 246 244 242 238 233 228 227 226 223
345 346 348 353 352 354 355 353 350 348 343 342 338 335 334 329 323 315 305 292 279 268 266 278 281 276 266 267 266 265 265 259 251 251 247 246 242 236 231 228 227 225 222
346 349 353 354 350 348 348 347 343 340 335 332 334 336 333 329 322 312 305 297 294 292 275 275 279 275 270 279 278 274 272 263 263 257 249 245 242 239 234 230 229 226 222
345 344 345 344 340 337 340 338 337 336 333 334 338 337 333 329 324 320 314 309 307 301 293 283 280 277 269 275 269 270 273 260 264 266 257 250 245 242 239 236 231 226 221
342 336 339 338 336 336 341 343 337 336 333 335 335 332 329 328 329 326 322 318 317 304 300 297 291 286 278 283 273 272 272 271 265 252 255 253 248 240 234 234 230 226 223
332 339 340 336 337 339 341 346 346 338 336 333 328 327 326 328 328 327 324 320 315 306 301 293 291 290 285 276 272 270 275 275 268 236 247 260 247 249 241 229 231 227 225
333 332 326 329 327 328 341 345 344 339 333 327 322 320 322 325 327 319 316 316 312 310 304 293 287 287 286 283 280 273 266 264 265 257 251 258 241 246 247 243 236 232 228
322 319 320 320 320 327 341 343 342 343 325 316 311 308 309 311 314 317 310 307 300 299 298 291 279 281 285 282 270 270 268 271 272 261 233 251 246 248 248 239 236 232 228
318 315 315 320 320 322 335 339 342 326 317 310 307 307 310 305 314 321 317 308 303 299 300 299 296 294 296 297 293 283 274 269 274 265 231 238 245 261 256 244 236 228 227
308 318 319 318 314 313 328 337 338 325 318 313 308 304 312 315 317 320 313 306 303 302 303 303 300 299 294 291 292 275 267 268 275 270 232 221 238 243 268 245 224 226 227